カタログに戻る

STARLINK-11381

運用中通信VLEO
NORAD 62094·PAYLOAD·🇺🇸 United States

打ち上げ Nov 25, 2024 から Cape Canaveral Space Force Station

Loading…

次のパス (今後24時間)

TLE

最新Source: CelesTrak SupGP

元期: Sep 15, 2026, 03:26 UTC

1 62094C 24220G   26258.14354167  .00005932  00000+0  46081-4 0  2584
2 62094  43.0001 341.0331 0001701 260.2959 335.3224 15.70829585    11

AllMySatでSTARLINK-11381をリアルタイム追跡

Download on the App Store